Year,Month,Day,Hour,Minute,Value (Times are PST for temperature in C)
2017,09,27,00,00,10.70
2017,09,27,00,01,10.70
2017,09,27,00,02,10.60
2017,09,27,00,03,10.60
2017,09,27,00,04,10.60
2017,09,27,00,05,10.60
2017,09,27,00,06,10.60
2017,09,27,00,07,10.60
2017,09,27,00,08,10.50
2017,09,27,00,09,10.50
2017,09,27,00,10,10.50
2017,09,27,00,11,10.50
2017,09,27,00,12,10.40
2017,09,27,00,13,10.40
2017,09,27,00,14,10.40
2017,09,27,00,15,10.40
2017,09,27,00,16,10.40
2017,09,27,00,17,10.30
2017,09,27,00,18,10.30
2017,09,27,00,19,10.30
2017,09,27,00,20,10.30
2017,09,27,00,21,10.30
2017,09,27,00,22,10.30
2017,09,27,00,23,10.30
2017,09,27,00,24,10.30
2017,09,27,00,25,10.30
2017,09,27,00,26,10.30
2017,09,27,00,27,10.30
2017,09,27,00,28,10.30
2017,09,27,00,29,10.30
2017,09,27,00,30,10.30
2017,09,27,00,31,10.30
2017,09,27,00,32,10.30
2017,09,27,00,33,10.30
2017,09,27,00,34,10.20
2017,09,27,00,35,10.20
2017,09,27,00,36,10.20
2017,09,27,00,37,10.20
2017,09,27,00,38,10.20
2017,09,27,00,39,10.20
2017,09,27,00,40,10.20
2017,09,27,00,41,10.20
2017,09,27,00,42,10.20
2017,09,27,00,43,10.20
2017,09,27,00,44,10.20
2017,09,27,00,45,10.20
2017,09,27,00,46,10.10
2017,09,27,00,47,10.10
2017,09,27,00,48,10.10
2017,09,27,00,49,10.10
2017,09,27,00,50,10.10
2017,09,27,00,51,10.10
2017,09,27,00,52,10.10
2017,09,27,00,53,10.10
2017,09,27,00,54,10.10
2017,09,27,00,55,10.10
2017,09,27,00,56,10.00
2017,09,27,00,57,10.00
2017,09,27,00,58,10.00
2017,09,27,00,59,10.00
2017,09,27,01,00,9.90
2017,09,27,01,01,10.00
2017,09,27,01,02,10.00
2017,09,27,01,03,10.00
2017,09,27,01,04,10.00
2017,09,27,01,05,9.90
2017,09,27,01,06,9.90
2017,09,27,01,07,9.90
2017,09,27,01,08,9.90
2017,09,27,01,09,9.90
2017,09,27,01,10,9.90
2017,09,27,01,11,9.90
2017,09,27,01,12,9.90
2017,09,27,01,13,9.90
2017,09,27,01,14,9.80
2017,09,27,01,15,9.80
2017,09,27,01,16,9.80
2017,09,27,01,17,9.80
2017,09,27,01,18,9.80
2017,09,27,01,19,9.80
2017,09,27,01,20,9.80
2017,09,27,01,21,9.70
2017,09,27,01,22,9.70
2017,09,27,01,23,9.70
2017,09,27,01,24,9.70
2017,09,27,01,25,9.70
2017,09,27,01,26,9.70
2017,09,27,01,27,9.70
2017,09,27,01,28,9.70
2017,09,27,01,29,9.70
2017,09,27,01,30,9.70
2017,09,27,01,31,9.70
2017,09,27,01,32,9.70
2017,09,27,01,33,9.70
2017,09,27,01,34,9.60
2017,09,27,01,35,9.60
2017,09,27,01,36,9.60
2017,09,27,01,37,9.60
2017,09,27,01,38,9.60
2017,09,27,01,39,9.60
2017,09,27,01,40,9.60
2017,09,27,01,41,9.60
2017,09,27,01,42,9.60
2017,09,27,01,43,9.60
2017,09,27,01,44,9.60
2017,09,27,01,45,9.50
2017,09,27,01,46,9.50
2017,09,27,01,47,9.50
2017,09,27,01,48,9.50
2017,09,27,01,49,9.50
2017,09,27,01,50,9.50
2017,09,27,01,51,9.50
2017,09,27,01,52,9.50
2017,09,27,01,53,9.50
2017,09,27,01,54,9.50
2017,09,27,01,55,9.40
2017,09,27,01,56,9.40
2017,09,27,01,57,9.40
2017,09,27,01,58,9.40
2017,09,27,01,59,9.40
2017,09,27,02,00,9.40
2017,09,27,02,01,9.40
2017,09,27,02,02,9.40
2017,09,27,02,03,9.40
2017,09,27,02,04,9.40
2017,09,27,02,05,9.40
2017,09,27,02,06,9.40
2017,09,27,02,07,9.30
2017,09,27,02,08,9.30
2017,09,27,02,09,9.30
2017,09,27,02,10,9.30
2017,09,27,02,11,9.30
2017,09,27,02,12,9.30
2017,09,27,02,13,9.30
2017,09,27,02,14,9.20
2017,09,27,02,15,9.20
2017,09,27,02,16,9.20
2017,09,27,02,17,9.20
2017,09,27,02,18,9.20
2017,09,27,02,19,9.20
2017,09,27,02,20,9.20
2017,09,27,02,21,9.20
2017,09,27,02,22,9.20
2017,09,27,02,23,9.20
2017,09,27,02,24,9.20
2017,09,27,02,25,9.20
2017,09,27,02,26,9.20
2017,09,27,02,27,9.20
2017,09,27,02,28,9.20
2017,09,27,02,29,9.20
2017,09,27,02,30,9.20
2017,09,27,02,31,9.10
2017,09,27,02,32,9.20
2017,09,27,02,33,9.20
2017,09,27,02,34,9.10
2017,09,27,02,35,9.10
2017,09,27,02,36,9.20
2017,09,27,02,37,9.10
2017,09,27,02,38,9.20
2017,09,27,02,39,9.20
2017,09,27,02,40,9.10
2017,09,27,02,41,9.20
2017,09,27,02,42,9.20
2017,09,27,02,43,9.10
2017,09,27,02,44,9.10
2017,09,27,02,45,9.10
2017,09,27,02,46,9.10
2017,09,27,02,47,9.10
2017,09,27,02,48,9.10
2017,09,27,02,49,9.10
2017,09,27,02,50,9.10
2017,09,27,02,51,9.10
2017,09,27,02,52,9.10
2017,09,27,02,53,9.10
2017,09,27,02,54,9.10
2017,09,27,02,55,9.10
2017,09,27,02,56,9.00
2017,09,27,02,57,9.00
2017,09,27,02,58,9.00
2017,09,27,02,59,9.00
2017,09,27,03,00,8.90
2017,09,27,03,01,8.90
2017,09,27,03,02,8.90
2017,09,27,03,03,8.90
2017,09,27,03,04,8.90
2017,09,27,03,05,8.90
2017,09,27,03,06,8.90
2017,09,27,03,07,8.90
2017,09,27,03,08,8.90
2017,09,27,03,09,8.90
2017,09,27,03,10,8.90
2017,09,27,03,11,8.90
2017,09,27,03,12,8.90
2017,09,27,03,13,8.80
2017,09,27,03,14,8.80
2017,09,27,03,15,8.80
2017,09,27,03,16,8.80
2017,09,27,03,17,8.80
2017,09,27,03,18,8.80
2017,09,27,03,19,8.80
2017,09,27,03,20,8.80
2017,09,27,03,21,8.80
2017,09,27,03,22,8.80
2017,09,27,03,23,8.80
2017,09,27,03,24,8.80
2017,09,27,03,25,8.80
2017,09,27,03,26,8.80
2017,09,27,03,27,8.80
2017,09,27,03,28,8.80
2017,09,27,03,29,8.80
2017,09,27,03,30,8.80
2017,09,27,03,31,8.80
2017,09,27,03,32,8.80
2017,09,27,03,33,8.80
2017,09,27,03,34,8.70
2017,09,27,03,35,8.70
2017,09,27,03,36,8.70
2017,09,27,03,37,8.70
2017,09,27,03,38,8.70
2017,09,27,03,39,8.70
2017,09,27,03,40,8.70
2017,09,27,03,41,8.70
2017,09,27,03,42,8.60
2017,09,27,03,43,8.60
2017,09,27,03,44,8.60
2017,09,27,03,45,8.60
2017,09,27,03,46,8.60
2017,09,27,03,47,8.60
2017,09,27,03,48,8.60
2017,09,27,03,49,8.60
2017,09,27,03,50,8.60
2017,09,27,03,51,8.60
2017,09,27,03,52,8.50
2017,09,27,03,53,8.50
2017,09,27,03,54,8.50
2017,09,27,03,55,8.50
2017,09,27,03,56,8.50
2017,09,27,03,57,8.40
2017,09,27,03,58,8.40
2017,09,27,03,59,8.40
2017,09,27,04,00,8.40
2017,09,27,04,01,8.40
2017,09,27,04,02,8.40
2017,09,27,04,03,8.40
2017,09,27,04,04,8.40
2017,09,27,04,05,8.30
2017,09,27,04,06,8.30
2017,09,27,04,07,8.40
2017,09,27,04,08,8.40
2017,09,27,04,09,8.40
2017,09,27,04,10,8.40
2017,09,27,04,11,8.40
2017,09,27,04,12,8.40
2017,09,27,04,13,8.40
2017,09,27,04,14,8.40
2017,09,27,04,15,8.40
2017,09,27,04,16,8.30
2017,09,27,04,17,8.30
2017,09,27,04,18,8.30
2017,09,27,04,19,8.30
2017,09,27,04,20,8.30
2017,09,27,04,21,8.30
2017,09,27,04,22,8.30
2017,09,27,04,23,8.30
2017,09,27,04,24,8.30
2017,09,27,04,25,8.30
2017,09,27,04,26,8.30
2017,09,27,04,27,8.30
2017,09,27,04,28,8.30
2017,09,27,04,29,8.30
2017,09,27,04,30,8.30
2017,09,27,04,31,8.30
2017,09,27,04,32,8.30
2017,09,27,04,33,8.30
2017,09,27,04,34,8.30
2017,09,27,04,35,8.20
2017,09,27,04,36,8.20
2017,09,27,04,37,8.20
2017,09,27,04,38,8.20
2017,09,27,04,39,8.20
2017,09,27,04,40,8.20
2017,09,27,04,41,8.20
2017,09,27,04,42,8.20
2017,09,27,04,43,8.20
2017,09,27,04,44,8.20
2017,09,27,04,45,8.20
2017,09,27,04,46,8.20
2017,09,27,04,47,8.20
2017,09,27,04,48,8.10
2017,09,27,04,49,8.10
2017,09,27,04,50,8.10
2017,09,27,04,51,8.10
2017,09,27,04,52,8.10
2017,09,27,04,53,8.10
2017,09,27,04,54,8.00
2017,09,27,04,55,8.00
2017,09,27,04,56,8.00
2017,09,27,04,57,8.00
2017,09,27,04,58,8.00
2017,09,27,04,59,8.00
2017,09,27,05,00,8.00
2017,09,27,05,01,7.90
2017,09,27,05,02,7.90
2017,09,27,05,03,7.90
2017,09,27,05,04,7.90
2017,09,27,05,05,7.90
2017,09,27,05,06,7.90
2017,09,27,05,07,7.90
2017,09,27,05,08,7.90
2017,09,27,05,09,7.90
2017,09,27,05,10,7.90
2017,09,27,05,11,7.90
2017,09,27,05,12,8.00
2017,09,27,05,13,8.00
2017,09,27,05,14,8.00
2017,09,27,05,15,8.00
2017,09,27,05,16,7.90
2017,09,27,05,17,8.00
2017,09,27,05,18,7.90
2017,09,27,05,19,8.00
2017,09,27,05,20,7.90
2017,09,27,05,21,7.90
2017,09,27,05,22,7.90
2017,09,27,05,23,7.90
2017,09,27,05,24,7.90
2017,09,27,05,25,7.90
2017,09,27,05,26,7.90
2017,09,27,05,27,7.90
2017,09,27,05,28,7.90
2017,09,27,05,29,7.90
2017,09,27,05,30,7.90
2017,09,27,05,31,7.90
2017,09,27,05,32,7.90
2017,09,27,05,33,7.90
2017,09,27,05,34,7.80
2017,09,27,05,35,7.80
2017,09,27,05,36,7.80
2017,09,27,05,37,7.80
2017,09,27,05,38,7.80
2017,09,27,05,39,7.80
2017,09,27,05,40,7.80
2017,09,27,05,41,7.80
2017,09,27,05,42,7.80
2017,09,27,05,43,7.80
2017,09,27,05,44,7.70
2017,09,27,05,45,7.70
2017,09,27,05,46,7.70
2017,09,27,05,47,7.70
2017,09,27,05,48,7.70
2017,09,27,05,49,7.70
2017,09,27,05,50,7.70
2017,09,27,05,51,7.70
2017,09,27,05,52,7.70
2017,09,27,05,53,7.60
2017,09,27,05,54,7.60
2017,09,27,05,55,7.60
2017,09,27,05,56,7.60
2017,09,27,05,57,7.60
2017,09,27,05,58,7.60
2017,09,27,05,59,7.60
2017,09,27,06,00,7.60
2017,09,27,06,01,7.60
2017,09,27,06,02,7.60
2017,09,27,06,03,7.60
2017,09,27,06,04,7.60
2017,09,27,06,05,7.60
2017,09,27,06,06,7.60
2017,09,27,06,07,7.60
2017,09,27,06,08,7.60
2017,09,27,06,09,7.60
2017,09,27,06,10,7.60
2017,09,27,06,11,7.60
2017,09,27,06,12,7.60
2017,09,27,06,13,7.60
2017,09,27,06,14,7.50
2017,09,27,06,15,7.50
2017,09,27,06,16,7.50
2017,09,27,06,17,7.50
2017,09,27,06,18,7.60
2017,09,27,06,19,7.50
2017,09,27,06,20,7.50
2017,09,27,06,21,7.60
2017,09,27,06,22,7.60
2017,09,27,06,23,7.60
2017,09,27,06,24,7.60
2017,09,27,06,25,7.60
2017,09,27,06,26,7.60
2017,09,27,06,27,7.60
2017,09,27,06,28,7.60
2017,09,27,06,29,7.50
2017,09,27,06,30,7.50
2017,09,27,06,31,7.50
2017,09,27,06,32,7.50
2017,09,27,06,33,7.50
2017,09,27,06,34,7.50
2017,09,27,06,35,7.50
2017,09,27,06,36,7.50
2017,09,27,06,37,7.50
2017,09,27,06,38,7.50
2017,09,27,06,39,7.50
2017,09,27,06,40,7.50
2017,09,27,06,41,7.50
2017,09,27,06,42,7.50
2017,09,27,06,43,7.50
2017,09,27,06,44,7.50
2017,09,27,06,45,7.50
2017,09,27,06,46,7.50
2017,09,27,06,47,7.50
2017,09,27,06,48,7.40
2017,09,27,06,49,7.40
2017,09,27,06,50,7.40
2017,09,27,06,51,7.40
2017,09,27,06,52,7.40
2017,09,27,06,53,7.40
2017,09,27,06,54,7.40
2017,09,27,06,55,7.40
2017,09,27,06,56,7.40
2017,09,27,06,57,7.40
2017,09,27,06,58,7.40
2017,09,27,06,59,7.40
2017,09,27,07,00,7.40
2017,09,27,07,01,7.40
2017,09,27,07,02,7.40
2017,09,27,07,03,7.40
2017,09,27,07,04,7.40
2017,09,27,07,05,7.40
2017,09,27,07,06,7.30
2017,09,27,07,07,7.30
2017,09,27,07,08,7.30
2017,09,27,07,09,7.30
2017,09,27,07,10,7.30
2017,09,27,07,11,7.30
2017,09,27,07,12,7.30
2017,09,27,07,13,7.30
2017,09,27,07,14,7.30
2017,09,27,07,15,7.30
2017,09,27,07,16,7.30
2017,09,27,07,17,7.30
2017,09,27,07,18,7.40
2017,09,27,07,19,7.30
2017,09,27,07,20,7.40
2017,09,27,07,21,7.30
2017,09,27,07,22,7.30
2017,09,27,07,23,7.30
2017,09,27,07,24,7.30
2017,09,27,07,25,7.30
2017,09,27,07,26,7.30
2017,09,27,07,27,7.30
2017,09,27,07,28,7.30
2017,09,27,07,29,7.30
2017,09,27,07,30,7.30
2017,09,27,07,31,7.30
2017,09,27,07,32,7.30
2017,09,27,07,33,7.30
2017,09,27,07,34,7.30
2017,09,27,07,35,7.30
2017,09,27,07,36,7.30
2017,09,27,07,37,7.20
2017,09,27,07,38,7.20
2017,09,27,07,39,7.20
2017,09,27,07,40,7.20
2017,09,27,07,41,7.20
2017,09,27,07,42,7.20
2017,09,27,07,43,7.30
2017,09,27,07,44,7.30
2017,09,27,07,45,7.30
2017,09,27,07,46,7.30
2017,09,27,07,47,7.30
2017,09,27,07,48,7.40
2017,09,27,07,49,7.40
2017,09,27,07,50,7.40
2017,09,27,07,51,7.40
2017,09,27,07,52,7.40
2017,09,27,07,53,7.40
2017,09,27,07,54,7.50
2017,09,27,07,55,7.50
2017,09,27,07,56,7.50
2017,09,27,07,57,7.50
2017,09,27,07,58,7.50
2017,09,27,07,59,7.60
2017,09,27,08,00,7.60
2017,09,27,08,01,7.60
2017,09,27,08,02,7.60
2017,09,27,08,03,7.60
2017,09,27,08,04,7.60
2017,09,27,08,05,7.60
2017,09,27,08,06,7.70
2017,09,27,08,07,7.70
2017,09,27,08,08,7.70
2017,09,27,08,09,7.70
2017,09,27,08,10,7.70
2017,09,27,08,11,7.70
2017,09,27,08,12,7.70
2017,09,27,08,13,7.70
2017,09,27,08,14,7.80
2017,09,27,08,15,7.80
2017,09,27,08,16,7.80
2017,09,27,08,17,7.80
2017,09,27,08,18,7.80
2017,09,27,08,19,7.80
2017,09,27,08,20,7.80
2017,09,27,08,21,7.80
2017,09,27,08,22,7.80
2017,09,27,08,23,7.90
2017,09,27,08,24,7.90
2017,09,27,08,25,7.90
2017,09,27,08,26,7.90
2017,09,27,08,27,7.90
2017,09,27,08,28,7.90
2017,09,27,08,29,7.90
2017,09,27,08,30,7.90
2017,09,27,08,31,8.00
2017,09,27,08,32,8.00
2017,09,27,08,33,8.10
2017,09,27,08,34,8.10
2017,09,27,08,35,8.10
2017,09,27,08,36,8.20
2017,09,27,08,37,8.20
2017,09,27,08,38,8.20
2017,09,27,08,39,8.20
2017,09,27,08,40,8.30
2017,09,27,08,41,8.30
2017,09,27,08,42,8.40
2017,09,27,08,43,8.40
2017,09,27,08,44,8.40
2017,09,27,08,45,8.40
2017,09,27,08,46,8.50
2017,09,27,08,47,8.50
2017,09,27,08,48,8.60
2017,09,27,08,49,8.60
2017,09,27,08,50,8.60
2017,09,27,08,51,8.70
2017,09,27,08,52,8.70
2017,09,27,08,53,8.80
2017,09,27,08,54,8.80
2017,09,27,08,55,8.90
2017,09,27,08,56,8.90
2017,09,27,08,57,9.00
2017,09,27,08,58,9.10
2017,09,27,08,59,9.10
2017,09,27,09,00,9.20
2017,09,27,09,01,9.20
2017,09,27,09,02,9.30
2017,09,27,09,03,9.40
2017,09,27,09,04,9.50
2017,09,27,09,05,9.60
2017,09,27,09,06,9.60
2017,09,27,09,07,9.70
2017,09,27,09,08,9.80
2017,09,27,09,09,9.90
2017,09,27,09,10,10.00
2017,09,27,09,11,10.00
2017,09,27,09,12,10.10
2017,09,27,09,13,10.20
2017,09,27,09,14,10.20
2017,09,27,09,15,10.20
2017,09,27,09,16,10.30
2017,09,27,09,17,10.30
2017,09,27,09,18,10.40
2017,09,27,09,19,10.50
2017,09,27,09,20,10.50
2017,09,27,09,21,10.60
2017,09,27,09,22,10.70
2017,09,27,09,23,10.80
2017,09,27,09,24,10.80
2017,09,27,09,25,10.90
2017,09,27,09,26,11.10
2017,09,27,09,27,11.10
2017,09,27,09,28,11.20
2017,09,27,09,29,11.20
2017,09,27,09,30,11.30
2017,09,27,09,31,11.30
2017,09,27,09,32,11.40
2017,09,27,09,33,11.40
2017,09,27,09,34,11.50
2017,09,27,09,35,11.50
2017,09,27,09,36,11.60
2017,09,27,09,37,11.70
2017,09,27,09,38,11.90
2017,09,27,09,39,12.00
2017,09,27,09,40,12.20
2017,09,27,09,41,12.30
2017,09,27,09,42,12.40
2017,09,27,09,43,12.50
2017,09,27,09,44,12.60
2017,09,27,09,45,12.70
2017,09,27,09,46,12.70
2017,09,27,09,47,12.70
2017,09,27,09,48,12.70
2017,09,27,09,49,12.80
2017,09,27,09,50,12.80
2017,09,27,09,51,12.90
2017,09,27,09,52,13.00
2017,09,27,09,53,13.10
2017,09,27,09,54,13.10
2017,09,27,09,55,13.20
2017,09,27,09,56,13.30
2017,09,27,09,57,13.30
2017,09,27,09,58,13.40
2017,09,27,09,59,13.50
2017,09,27,10,00,13.70
2017,09,27,10,01,13.80
2017,09,27,10,02,13.80
2017,09,27,10,03,13.90
2017,09,27,10,04,14.00
2017,09,27,10,05,14.10
2017,09,27,10,06,14.10
2017,09,27,10,07,14.20
2017,09,27,10,08,14.20
2017,09,27,10,09,14.30
2017,09,27,10,10,14.40
2017,09,27,10,11,14.50
2017,09,27,10,12,14.60
2017,09,27,10,13,14.70
2017,09,27,10,14,14.80
2017,09,27,10,15,14.90
2017,09,27,10,16,15.00
2017,09,27,10,17,15.00
2017,09,27,10,18,15.00
2017,09,27,10,19,15.20
2017,09,27,10,20,15.30
2017,09,27,10,21,15.40
2017,09,27,10,22,15.40
2017,09,27,10,23,15.60
2017,09,27,10,24,15.70
2017,09,27,10,25,15.80
2017,09,27,10,26,15.90
2017,09,27,10,27,16.00
2017,09,27,10,28,16.10
2017,09,27,10,29,16.10
2017,09,27,10,30,16.20
2017,09,27,10,31,16.30
2017,09,27,10,32,16.30
2017,09,27,10,33,16.40
2017,09,27,10,34,16.60
2017,09,27,10,35,16.80
2017,09,27,10,36,16.90
2017,09,27,10,37,17.10
2017,09,27,10,38,17.20
2017,09,27,10,39,17.40
2017,09,27,10,40,17.50
2017,09,27,10,41,17.70
2017,09,27,10,42,17.70
2017,09,27,10,43,17.70
2017,09,27,10,44,17.80
2017,09,27,10,45,17.80
2017,09,27,10,46,17.80
2017,09,27,10,47,17.90
2017,09,27,10,48,18.00
2017,09,27,10,49,18.00
2017,09,27,10,50,18.00
2017,09,27,10,51,18.00
2017,09,27,10,52,18.10
2017,09,27,10,53,18.10
2017,09,27,10,54,18.10
2017,09,27,10,55,18.10
2017,09,27,10,56,18.10
2017,09,27,10,57,18.10
2017,09,27,10,58,18.20
2017,09,27,10,59,18.20
2017,09,27,11,00,18.20
2017,09,27,11,01,18.30
2017,09,27,11,02,18.30
2017,09,27,11,03,18.40
2017,09,27,11,04,18.50
2017,09,27,11,05,18.40
2017,09,27,11,06,18.50
2017,09,27,11,07,18.50
2017,09,27,11,08,18.60
2017,09,27,11,09,18.70
2017,09,27,11,10,18.70
2017,09,27,11,11,18.70
2017,09,27,11,12,18.80
2017,09,27,11,13,18.90
2017,09,27,11,14,19.00
2017,09,27,11,15,19.10
2017,09,27,11,16,19.10
2017,09,27,11,17,19.20
2017,09,27,11,18,19.20
2017,09,27,11,19,19.20
2017,09,27,11,20,19.30
2017,09,27,11,21,19.30
2017,09,27,11,22,19.40
2017,09,27,11,23,19.50
2017,09,27,11,24,19.60
2017,09,27,11,25,19.70
2017,09,27,11,26,19.80
2017,09,27,11,27,20.00
2017,09,27,11,28,20.00
2017,09,27,11,29,20.10
2017,09,27,11,30,20.20
2017,09,27,11,31,20.20
2017,09,27,11,32,20.30
2017,09,27,11,33,20.30
2017,09,27,11,34,20.30
2017,09,27,11,35,20.30
2017,09,27,11,36,20.20
2017,09,27,11,37,20.30
2017,09,27,11,38,20.30
2017,09,27,11,39,20.30
2017,09,27,11,40,20.40
2017,09,27,11,41,20.50
2017,09,27,11,42,20.60
2017,09,27,11,43,20.60
2017,09,27,11,44,20.60
2017,09,27,11,45,20.70
2017,09,27,11,46,20.70
2017,09,27,11,47,20.70
2017,09,27,11,48,20.80
2017,09,27,11,49,20.80
2017,09,27,11,50,20.80
2017,09,27,11,51,20.80
2017,09,27,11,52,20.80
2017,09,27,11,53,20.90
2017,09,27,11,54,21.00
2017,09,27,11,55,21.00
2017,09,27,11,56,21.00
2017,09,27,11,57,21.10
2017,09,27,11,58,21.10
2017,09,27,11,59,21.10
2017,09,27,12,00,21.20
2017,09,27,12,01,21.20
2017,09,27,12,02,21.20
2017,09,27,12,03,21.20
2017,09,27,12,04,21.20
2017,09,27,12,05,21.20
2017,09,27,12,06,21.30
2017,09,27,12,07,21.30
2017,09,27,12,08,21.40
2017,09,27,12,09,21.40
2017,09,27,12,10,21.50
2017,09,27,12,11,21.60
2017,09,27,12,12,21.60
2017,09,27,12,13,21.70
2017,09,27,12,14,21.80
2017,09,27,12,15,21.80
2017,09,27,12,16,21.80
2017,09,27,12,17,21.80
2017,09,27,12,18,21.80
2017,09,27,12,19,21.80
2017,09,27,12,20,21.80
2017,09,27,12,21,21.70
2017,09,27,12,22,21.60
2017,09,27,12,23,21.60
2017,09,27,12,24,21.60
2017,09,27,12,25,21.60
2017,09,27,12,26,21.60
2017,09,27,12,27,21.60
2017,09,27,12,28,21.50
2017,09,27,12,29,21.50
2017,09,27,12,30,21.60
2017,09,27,12,31,21.60
2017,09,27,12,32,21.60
2017,09,27,12,33,21.60
2017,09,27,12,34,21.70
2017,09,27,12,35,21.70
2017,09,27,12,36,21.70
2017,09,27,12,37,21.70
2017,09,27,12,38,21.80
2017,09,27,12,39,21.80
2017,09,27,12,40,21.80
2017,09,27,12,41,21.80
2017,09,27,12,42,21.90
2017,09,27,12,43,21.90
2017,09,27,12,44,22.00
2017,09,27,12,45,22.10
2017,09,27,12,46,22.10
2017,09,27,12,47,22.20
2017,09,27,12,48,22.30
2017,09,27,12,49,22.30
2017,09,27,12,50,22.40
2017,09,27,12,51,22.50
2017,09,27,12,52,22.50
2017,09,27,12,53,22.50
2017,09,27,12,54,22.50
2017,09,27,12,55,22.40
2017,09,27,12,56,22.30
2017,09,27,12,57,22.20
2017,09,27,12,58,22.10
2017,09,27,12,59,22.10
2017,09,27,13,00,22.00
2017,09,27,13,01,21.90
2017,09,27,13,02,21.90
2017,09,27,13,03,21.80
2017,09,27,13,04,21.80
2017,09,27,13,05,21.80
2017,09,27,13,06,21.80
2017,09,27,13,07,21.90
2017,09,27,13,08,21.90
2017,09,27,13,09,22.00
2017,09,27,13,10,22.10
2017,09,27,13,11,22.10
2017,09,27,13,12,22.10
2017,09,27,13,13,22.10
2017,09,27,13,14,22.20
2017,09,27,13,15,22.20
2017,09,27,13,16,22.30
2017,09,27,13,17,22.40
2017,09,27,13,18,22.50
2017,09,27,13,19,22.50
2017,09,27,13,20,22.50
2017,09,27,13,21,22.50
2017,09,27,13,22,22.50
2017,09,27,13,23,22.50
2017,09,27,13,24,22.60
2017,09,27,13,25,22.70
2017,09,27,13,26,22.70
2017,09,27,13,27,22.70
2017,09,27,13,28,22.80
2017,09,27,13,29,22.80
2017,09,27,13,30,22.80
2017,09,27,13,31,22.90
2017,09,27,13,32,22.80
2017,09,27,13,33,22.80
2017,09,27,13,34,22.80
2017,09,27,13,35,22.80
2017,09,27,13,36,22.80
2017,09,27,13,37,22.90
2017,09,27,13,38,22.90
2017,09,27,13,39,23.00
2017,09,27,13,40,23.00
2017,09,27,13,41,23.00
2017,09,27,13,42,22.90
2017,09,27,13,43,22.90
2017,09,27,13,44,22.90
2017,09,27,13,45,22.90
2017,09,27,13,46,22.80
2017,09,27,13,47,22.80
2017,09,27,13,48,22.90
2017,09,27,13,49,22.90
2017,09,27,13,50,23.00
2017,09,27,13,51,23.00
2017,09,27,13,52,23.10
2017,09,27,13,53,23.10
2017,09,27,13,54,23.10
2017,09,27,13,55,23.10
2017,09,27,13,56,23.10
2017,09,27,13,57,23.10
2017,09,27,13,58,23.10
2017,09,27,13,59,23.10
2017,09,27,14,00,23.10
2017,09,27,14,01,23.20
2017,09,27,14,02,23.20
2017,09,27,14,03,23.20
2017,09,27,14,04,23.20
2017,09,27,14,05,23.20
2017,09,27,14,06,23.20
2017,09,27,14,07,23.20
2017,09,27,14,08,23.20
2017,09,27,14,09,23.30
2017,09,27,14,10,23.30
2017,09,27,14,11,23.40
2017,09,27,14,12,23.50
2017,09,27,14,13,23.70
2017,09,27,14,14,23.70
2017,09,27,14,15,23.80
2017,09,27,14,16,23.80
2017,09,27,14,17,23.80
2017,09,27,14,18,23.80
2017,09,27,14,19,23.70
2017,09,27,14,20,23.60
2017,09,27,14,21,23.50
2017,09,27,14,22,23.50
2017,09,27,14,23,23.40
2017,09,27,14,24,23.40
2017,09,27,14,25,23.40
2017,09,27,14,26,23.50
2017,09,27,14,27,23.50
2017,09,27,14,28,23.60
2017,09,27,14,29,23.60
2017,09,27,14,30,23.70
2017,09,27,14,31,23.70
2017,09,27,14,32,23.70
2017,09,27,14,33,23.80
2017,09,27,14,34,23.80
2017,09,27,14,35,23.80
2017,09,27,14,36,23.80
2017,09,27,14,37,23.90
2017,09,27,14,38,23.90
2017,09,27,14,39,23.90
2017,09,27,14,40,23.90
2017,09,27,14,41,23.90
2017,09,27,14,42,23.90
2017,09,27,14,43,24.00
2017,09,27,14,44,24.10
2017,09,27,14,45,24.10
2017,09,27,14,46,24.20
2017,09,27,14,47,24.20
2017,09,27,14,48,24.20
2017,09,27,14,49,24.30
2017,09,27,14,50,24.30
2017,09,27,14,51,24.30
2017,09,27,14,52,24.30
2017,09,27,14,53,24.30
2017,09,27,14,54,24.20
2017,09,27,14,55,24.20
2017,09,27,14,56,24.20
2017,09,27,14,57,24.20
2017,09,27,14,58,24.20
2017,09,27,14,59,24.20
2017,09,27,15,00,24.20
2017,09,27,15,01,24.20
2017,09,27,15,02,24.20
2017,09,27,15,03,24.20
2017,09,27,15,04,24.30
2017,09,27,15,05,24.30
2017,09,27,15,06,24.30
2017,09,27,15,07,24.30
2017,09,27,15,08,24.30
2017,09,27,15,09,24.30
2017,09,27,15,10,24.40
2017,09,27,15,11,24.40
2017,09,27,15,12,24.40
2017,09,27,15,13,24.40
2017,09,27,15,14,24.40
2017,09,27,15,15,24.40
2017,09,27,15,16,24.40
2017,09,27,15,17,24.50
2017,09,27,15,18,24.50
2017,09,27,15,19,24.60
2017,09,27,15,20,24.60
2017,09,27,15,21,24.60
2017,09,27,15,22,24.60
2017,09,27,15,23,24.60
2017,09,27,15,24,24.60
2017,09,27,15,25,24.60
2017,09,27,15,26,24.60
2017,09,27,15,27,24.60
2017,09,27,15,28,24.60
2017,09,27,15,29,24.60
2017,09,27,15,30,24.60
2017,09,27,15,31,24.70
2017,09,27,15,32,24.70
2017,09,27,15,33,24.70
2017,09,27,15,34,24.80
2017,09,27,15,35,24.80
2017,09,27,15,36,24.80
2017,09,27,15,37,24.80
2017,09,27,15,38,24.70
2017,09,27,15,39,24.70
2017,09,27,15,40,24.60
2017,09,27,15,41,24.60
2017,09,27,15,42,24.60
2017,09,27,15,43,24.60
2017,09,27,15,44,24.60
2017,09,27,15,45,24.50
2017,09,27,15,46,24.50
2017,09,27,15,47,24.40
2017,09,27,15,48,24.40
2017,09,27,15,49,24.40
2017,09,27,15,50,24.30
2017,09,27,15,51,24.30
2017,09,27,15,52,24.30
2017,09,27,15,53,24.30
2017,09,27,15,54,24.30
2017,09,27,15,55,24.30
2017,09,27,15,56,24.30
2017,09,27,15,57,24.30
2017,09,27,15,58,24.40
2017,09,27,15,59,24.40
2017,09,27,16,00,24.40
2017,09,27,16,01,24.40
2017,09,27,16,02,24.40
2017,09,27,16,03,24.40
2017,09,27,16,04,24.40
2017,09,27,16,05,24.40
2017,09,27,16,06,24.40
2017,09,27,16,07,24.40
2017,09,27,16,08,24.40
2017,09,27,16,09,24.30
2017,09,27,16,10,24.30
2017,09,27,16,11,24.30
2017,09,27,16,12,24.30
2017,09,27,16,13,24.30
2017,09,27,16,14,24.30
2017,09,27,16,15,24.30
2017,09,27,16,16,24.30
2017,09,27,16,17,24.30
2017,09,27,16,18,24.30
2017,09,27,16,19,24.40
2017,09,27,16,20,24.40
2017,09,27,16,21,24.30
2017,09,27,16,22,24.30
2017,09,27,16,23,24.30
2017,09,27,16,24,24.30
2017,09,27,16,25,24.30
2017,09,27,16,26,24.30
2017,09,27,16,27,24.30
2017,09,27,16,28,24.30
2017,09,27,16,29,24.20
2017,09,27,16,30,24.20
2017,09,27,16,31,24.20
2017,09,27,16,32,24.20
2017,09,27,16,33,24.20
2017,09,27,16,34,24.20
2017,09,27,16,35,24.20
2017,09,27,16,36,24.20
2017,09,27,16,37,24.20
2017,09,27,16,38,24.30
2017,09,27,16,39,24.20
2017,09,27,16,40,24.20
2017,09,27,16,41,24.20
2017,09,27,16,42,24.20
2017,09,27,16,43,24.20
2017,09,27,16,44,24.10
2017,09,27,16,45,24.10
2017,09,27,16,46,24.10
2017,09,27,16,47,24.10
2017,09,27,16,48,24.10
2017,09,27,16,49,24.10
2017,09,27,16,50,24.10
2017,09,27,16,51,24.10
2017,09,27,16,52,24.10
2017,09,27,16,53,24.10
2017,09,27,16,54,24.10
2017,09,27,16,55,24.00
2017,09,27,16,56,24.00
2017,09,27,16,57,24.00
2017,09,27,16,58,24.00
2017,09,27,16,59,24.00
2017,09,27,17,00,24.00
2017,09,27,17,01,23.90
2017,09,27,17,02,23.90
2017,09,27,17,03,23.90
2017,09,27,17,04,23.90
2017,09,27,17,05,23.90
2017,09,27,17,06,23.90
2017,09,27,17,07,23.80
2017,09,27,17,08,23.80
2017,09,27,17,09,23.80
2017,09,27,17,10,23.80
2017,09,27,17,11,23.70
2017,09,27,17,12,23.70
2017,09,27,17,13,23.70
2017,09,27,17,14,23.70
2017,09,27,17,15,23.70
2017,09,27,17,16,23.70
2017,09,27,17,17,23.70
2017,09,27,17,18,23.70
2017,09,27,17,19,23.70
2017,09,27,17,20,23.60
2017,09,27,17,21,23.60
2017,09,27,17,22,23.60
2017,09,27,17,23,23.60
2017,09,27,17,24,23.50
2017,09,27,17,25,23.50
2017,09,27,17,26,23.50
2017,09,27,17,27,23.40
2017,09,27,17,28,23.40
2017,09,27,17,29,23.40
2017,09,27,17,30,23.40
2017,09,27,17,31,23.40
2017,09,27,17,32,23.40
2017,09,27,17,33,23.30
2017,09,27,17,34,23.30
2017,09,27,17,35,23.30
2017,09,27,17,36,23.20
2017,09,27,17,37,23.20
2017,09,27,17,38,23.20
2017,09,27,17,39,23.10
2017,09,27,17,40,23.10